Location: Newark
(37.3186°N, 13.6631°E)
Time: 23:50:18
(UTC+00:00)

ISS - Pass Details

Date: 19 November 2019
Orbit: 411 x 421 km, 51.6° (Epoch: 13 December)

Event Time Altitude Azimuth Distance (km) Brightness Sun altitude
Rises 18:10:09 0° 227° (SW) 2,343 0.8 -27.2°
Reaches altitude 10° 18:12:14 10° 226° (SW) 1,486 -0.4 -27.6°
Enters shadow 18:12:58 16° 226° (SW) 1,192 -0.9 -27.8°
